#timestamp,LO_Frequency,Hit,StdDev 
1578862815.0,286046997.2,P
1578862815.9,286046997.2,P
1578862835.8,286047002.3,N
1578862855.6,286046994.9,N
1578862875.4,286046991.9,Y
1578862895.3,286046992.4,P
1578862915.1,286047000.2,N
1578862935.9,286047003.7,N
1578862955.7,286047006.3,N
1578862975.5,286047007.1,N
1578862995.4,286047005.3,N
1578863015.2,286047006.3,N
1578863035.0,286047000.7,N
1578863036.0,286047000.7,N
1578863055.8,286046999.5,N
1578863075.6,286047002.6,N
1578863095.5,286046997.4,N
1578863115.3,286046994.1,N
1578863135.1,286046993.4,N
1578863155.9,286046994.2,N
1578863175.7,286046991.0,N
1578863195.5,286046991.5,N
1578863215.4,286046987.5,N
1578863235.2,286046984.1,N
1578863255.1,286046989.4,N
1578863256.0,286046989.4,N
1578863275.8,286046994.2,N
1578863295.6,286046996.3,N
1578863315.5,286046995.6,N
1578863335.3,286046990.1,N
1578863355.1,286046993.0,N
1578863375.9,286046995.5,N
1578863395.7,286047002.5,N
1578863415.6,286047002.8,N
1578863435.4,286047003.9,N
1578863455.2,286047006.8,N
1578863475.1,286046999.7,N
1578863476.0,286046999.7,N
1578863495.8,286046998.9,N
1578863515.6,286046995.7,N
1578863535.5,286046991.9,N
1578863555.3,286046992.6,N
1578863575.2,286046994.9,N
1578863595.9,286046998.0,N
1578863615.7,286047002.5,N
1578863635.6,286047000.3,N
1578863655.4,286047002.5,N
1578863675.2,286047004.6,N
1578863695.1,286047005.6,N
1578863696.0,286047005.6,N
1578863715.8,286047002.4,N
1578863735.7,286047003.2,N
1578863755.5,286047006.4,N
1578863775.3,286047004.8,N
1578863795.2,286047004.2,N
1578863815.0,286047005.4,N
1578863815.9,286047005.4,N
1578863835.8,286047004.2,N
1578863855.6,286047007.4,N
1578863875.4,286047005.6,N
1578863895.3,286047007.1,N
1578863915.1,286047003.1,N
1578863935.8,286047004.1,N
1578863955.7,286047002.8,N
1578863975.5,286046997.1,N
1578863995.4,286046997.2,N
1578864015.2,286046995.9,N
1578864035.0,286046994.1,N
1578864035.9,286046994.1,N
1578864055.8,286046992.8,N
1578864075.6,286046989.4,N
1578864095.4,286046985.7,N
1578864115.3,286046986.4,N
1578864135.1,286046989.8,N
1578864155.9,286046992.6,N
1578864175.7,286046992.7,N
1578864195.5,286046995.7,N
1578864215.4,286046996.9,N
1578864235.2,286046997.9,N
1578864255.0,286047000.6,N
1578864255.9,286047000.6,N
1578864275.8,286046995.4,N
1578864295.6,286046995.0,N
1578864315.5,286046998.0,N
1578864335.3,286046994.0,N
1578864355.1,286046992.1,N
1578864375.9,286046994.4,N
1578864395.7,286046994.9,N
1578864415.6,286046996.3,N
1578864435.4,286046995.1,N
1578864455.2,286046996.2,N
1578864475.1,286046997.8,N
1578864476.0,286046997.8,N
1578864495.8,286046999.5,N
1578864515.6,286046999.3,N
1578864535.5,286046997.6,N
1578864555.3,286046994.7,N
1578864575.2,286046994.2,N
1578864595.0,286046990.5,N
1578864595.9,286046990.5,N
1578864615.8,286046987.0,Y
1578864635.6,286046994.5,P
1578864655.4,286046992.6,P
1578864675.3,286046997.0,P
1578864695.1,286046997.8,N
1578864715.9,286046998.4,N
1578864735.7,286046999.4,N
1578864755.6,286047000.4,N
1578864775.0,286046997.7,N
1578864775.9,286046997.7,N
1578864825.8,286047008.0,E
1578864835.7,286047004.5,N
1578864855.5,286047000.7,P
1578864875.4,286047013.2,P
1578864895.2,286047018.8,Y
1578864915.1,286047006.9,P
1578864916.0,286047006.9,P
1578864935.8,286047002.3,P
1578864955.6,286047004.3,N
1578864975.5,286047003.8,N
1578864995.3,286046999.6,N
1578865015.2,286047002.3,N
1578865035.9,286047000.7,N
1578865055.7,286047007.4,N
1578865075.6,286047001.9,N
1578865095.4,286047002.5,N
1578865115.2,286047004.6,N
1578865135.1,286047000.8,N
1578865136.0,286047000.8,N
1578865155.8,286047001.5,N
1578865175.7,286047000.7,N
1578865195.5,286046996.3,N
1578865215.3,286046991.1,Y
1578865235.2,286046984.2,P
1578865255.0,286046991.3,N
1578865255.9,286046991.3,N
1578865275.8,286046995.5,N
1578865295.6,286046996.9,N
1578865315.4,286046997.8,N
1578865335.3,286046992.5,N
1578865355.1,286046989.9,N
1578865375.8,286046993.2,N
1578865395.7,286046991.6,N
1578865415.5,286046987.5,N
1578865435.4,286046989.8,N
1578865455.2,286046991.5,N
1578865475.0,286046985.4,Y
1578865475.9,286046985.4,P
1578865495.8,286046994.4,N
1578865515.6,286047003.0,N
1578865535.4,286047000.4,N
1578865555.3,286047000.2,N
1578865575.1,286047007.8,N
1578865595.9,286047009.8,N
1578865615.7,286047003.7,N
1578865635.5,286047002.1,N
1578865655.4,286046998.4,N
1578865675.2,286046996.2,N
1578865695.0,286046994.5,N
1578865695.9,286046994.5,N
1578865715.8,286046998.3,N
1578865735.6,286046994.8,N
1578865755.5,286046992.6,N
1578865775.3,286046991.9,N
1578865795.1,286046995.2,N
1578865815.9,286046998.4,N
1578865835.7,286046998.0,N
1578865855.5,286046992.0,N
1578865875.4,286046990.7,N
1578865895.2,286046994.4,N
1578865915.0,286046991.2,N
1578865916.0,286046991.2,N
1578865935.8,286046984.1,N
1578865955.6,286046984.4,N
1578865975.5,286046992.9,N
1578865995.3,286046989.0,N
1578866015.1,286046987.9,N
1578866035.9,286046986.8,N
1578866055.7,286046987.4,N
1578866075.5,286046994.8,N
1578866095.4,286046988.6,N
1578866115.2,286046994.9,N
1578866135.1,286046995.5,N
1578866136.0,286046995.5,N
1578866155.8,286046997.4,N
1578866175.6,286046999.8,N
1578866195.5,286046993.9,N
1578866215.3,286046993.0,N
1578866235.1,286046990.2,N
1578866255.9,286046986.9,Y
1578866275.7,286046997.4,P
1578866295.6,286046997.8,N
1578866315.4,286046993.4,N
1578866335.2,286046997.1,N
1578866355.1,286046994.6,N
1578866356.0,286046994.6,N
1578866375.8,286047003.4,N
1578866395.7,286047007.4,N
